Location: Oshawa
(43.9000°N, 78.8670°W)
Time: 08:32:11
(UTC-05:00)

S-56A Canister/Altair - All Passes

Search period start: 06 February 2016 00:00
Search period end: 16 February 2016 00:00
Orbit: 639 x 2496 km, 38.9° (Epoch: 06 February)

Date Brightness Start Highest point End Pass type
(mag) Time Alt. Az. Time Alt. Az. Time Alt. Az.
06 Feb - 15:12:06 10° S 15:17:57 22° SE 15:25:36 10° E daylight
06 Feb - 17:12:35 10° SW 17:21:13 55° SSE 17:33:48 10° E daylight
06 Feb - 19:15:49 10° W 19:26:31 71° S 19:41:04 10° E visible
06 Feb - 21:20:16 10° W 21:32:33 58° SSW 21:47:11 10° SE visible
06 Feb - 23:26:14 10° W 23:37:53 32° SW 23:50:04 10° SSE visible
07 Feb - 14:40:51 10° S 14:45:43 18° SE 14:51:48 10° E daylight
07 Feb - 16:40:35 10° SW 16:48:36 50° SSE 17:00:23 10° E daylight
07 Feb - 18:43:31 10° WSW 18:53:33 70° S 19:07:43 10° E visible
07 Feb - 20:47:41 10° W 20:59:28 60° SSW 21:14:09 10° SE visible
07 Feb - 22:53:14 10° W 23:04:57 35° SW 23:17:38 10° SSE visible
08 Feb - 01:05:52 10° WSW 01:08:58 11° SW 01:12:03 10° SW night (unlit)
08 Feb - 14:09:58 10° SSE 14:13:33 14° SE 14:17:44 10° E daylight
08 Feb - 16:08:40 10° SW 16:16:05 45° SSE 16:26:58 10° E daylight
08 Feb - 18:11:17 10° WSW 18:20:40 69° S 18:34:19 10° E visible
08 Feb - 20:15:12 10° W 20:26:26 62° SSW 20:41:00 10° ESE visible
08 Feb - 22:20:22 10° W 22:31:58 38° SW 22:45:04 10° SSE visible
09 Feb - 00:30:27 10° WSW 00:36:16 13° SW 00:42:09 10° SSW visible
09 Feb - 13:40:33 10° SE 13:41:26 10° SE 13:42:20 10° ESE daylight
09 Feb - 15:36:50 10° SW 15:43:39 40° SSE 15:53:34 10° E daylight
09 Feb - 17:39:06 10° WSW 17:47:53 67° S 18:00:55 10° E daylight
09 Feb - 19:42:49 10° W 19:53:26 64° SSW 20:07:47 10° ESE visible
09 Feb - 21:47:36 10° W 21:59:00 40° SSW 22:12:23 10° SSE visible
09 Feb - 23:56:15 10° W 00:03:31 16° SW 00:11:03 10° SSW visible
10 Feb - 15:05:05 10° SSW 15:11:18 35° SE 15:20:11 10° E daylight
10 Feb - 17:07:00 10° WSW 17:15:11 64° SSE 17:27:31 10° E daylight
10 Feb - 19:10:28 10° W 19:20:30 65° S 19:34:31 10° ESE visible
10 Feb - 21:14:58 10° W 21:26:02 43° SSW 21:39:34 10° SE visible
10 Feb - 23:22:33 10° W 23:30:44 18° SW 23:39:26 10° S visible
11 Feb - 14:33:25 10° SSW 14:39:02 29° SE 14:46:49 10° E daylight
11 Feb - 16:34:57 10° WSW 16:42:34 61° SSE 16:54:09 10° E daylight
11 Feb - 18:38:13 10° W 18:47:37 66° S 19:01:12 10° ESE visible
11 Feb - 20:42:25 10° W 20:53:05 45° SSW 21:06:39 10° SE visible
11 Feb - 22:49:12 10° W 22:57:56 21° SW 23:07:31 10° S visible
12 Feb - 14:01:51 10° SSW 14:06:50 25° SE 14:13:28 10° E daylight
12 Feb - 16:02:58 10° WSW 16:10:02 57° SSE 16:20:48 10° E daylight
12 Feb - 18:06:00 10° W 18:14:49 66° S 18:27:51 10° ESE visible
12 Feb - 20:09:58 10° W 20:20:10 48° SSW 20:33:39 10° SE visible
12 Feb - 22:16:04 10° W 22:25:07 23° SW 22:35:21 10° S visible
13 Feb - 13:30:26 10° S 13:34:41 20° SE 13:40:04 10° E daylight
13 Feb - 15:31:02 10° SW 15:37:35 53° SSE 15:47:30 10° E daylight
13 Feb - 17:33:52 10° W 17:42:05 66° S 17:54:30 10° ESE daylight
13 Feb - 19:37:35 10° W 19:47:18 50° SSW 20:00:34 10° SE visible
13 Feb - 21:43:09 10° W 21:52:18 25° SW 22:03:00 10° S visible
14 Feb - 12:59:14 10° S 13:02:35 16° SE 13:06:35 10° E daylight
14 Feb - 14:59:08 10° SW 15:05:12 48° SSE 15:14:16 10° E daylight
14 Feb - 17:01:45 10° W 17:09:26 66° S 17:21:10 10° ESE daylight
14 Feb - 19:05:17 10° W 19:14:28 51° SSW 19:27:25 10° SE visible
14 Feb - 21:10:23 10° W 21:19:29 27° SW 21:30:29 10° SSE visible
15 Feb - 12:28:31 10° SSE 12:30:31 12° SE 12:32:43 10° ESE daylight
15 Feb - 14:27:17 10° SW 14:32:55 43° SSE 14:41:05 10° E daylight
15 Feb - 16:29:42 10° WSW 16:36:52 65° S 16:47:51 10° E daylight
15 Feb - 18:33:03 10° W 18:41:42 53° SSW 18:54:14 10° SE visible
15 Feb - 20:37:44 10° W 20:46:39 29° SW 20:57:51 10° SSE visible
